Regional Weather Roundup
Issued by NWS

Home | Current Version | Previous Version | Graphics & Text | Print | Product List | Glossary On
Versions: 1 2 3 4 5 6 7 8 9 10 11 12 13 14 15 16 17 18 19 20 21 22 23 24 25 26 27 28 29 30 31 32 33 34 35 36 37 38 39 40 41 42 43 44 45 46 47 48 49 50
000
ASUS45 KABQ 020501
RWRNM
WEATHER ROUNDUP FOR NEW MEXICO
NATIONAL WEATHER SERVICE ALBUQUERQUE NM
1000 PM MST SUN MAR 01 2015

NOTE: "FAIR" MEANS FEW OR NO CLOUDS BELOW 12,000 FEET AGL WITH NO
       SIGNIFICANT WEATHER OR OBSTRUCTIONS TO VISION.

      THIS PRODUCT IS RELEASED AS TWO VERSIONS.  ONE VERSION NEAR
      THE TOP OF THE HOUR CONTAINING PRELIMINARY DATA FROM ALBUQUERQUE
      AND OTHER STATIONS.  A FINAL VERSION WITH ADDITIONAL DATA IS
      ISSUED ABOUT 10 MINUTES AFTER THE HOUR.

NMZ501-503-504-510>518-020600-
NORTHWEST PLATEAU/NORTHCENTRAL MOUNTAINS

CITY           SKY/WX    TMP DP  RH WIND       PRES   REMARKS
FARMINGTON     PTCLDY    37  34  89 E10       30.07S WCI  30
SANTA FE       MOCLDY    38  28  67 SE17G23   30.16R WCI  28
TAOS           PTCLDY    34  27  75 SE7       30.14R WCI  28
ANGEL FIRE     FAIR      31  28  88 CALM      30.18S

$$
NMZ402-403-502-505>509-020600-
WESTCENTRAL MOUNTAINS/SOUTHWEST MOUNTAINS

CITY           SKY/WX    TMP DP  RH WIND       PRES   REMARKS
GALLUP         MOCLDY    41  36  82 S5        30.09R
GRANTS         CLEAR     33  30  87 SW5       30.13S WCI  29
SILVER CITY    MOCLDY    50  25  37 NW5       30.15R

$$
NMZ407-409-411-412-020600-
SOUTHERN DESERTS

CITY           SKY/WX    TMP DP  RH WIND       PRES   REMARKS
DEMING         CLOUDY    58  24  27 S5        30.09R
HOLLOMAN AFB   MOCLDY    58  19  22 N15       30.07R
ALAMOGORDO     MOCLDY    55  18  22 S9        30.09R
T OR C         MOCLDY    53  25  33 CALM      30.08R

$$
NMZ519>523-020600-
CENTRAL VALLEYS/CENTRAL HIGHLANDS

CITY           SKY/WX    TMP DP  RH WIND       PRES   REMARKS
ALBUQUERQUE    PTCLDY    48  30  49 S8        30.10R
DOUBLE EAGLE   CLEAR     40  36  84 SW8       30.12R WCI  35
MORIARTY ARPT  FAIR      30  28  90 SW7       30.23R WCI  23
CLINES CORNERS FOG       28  26  92 E17       30.20R VSB 1/4 WCI  16
BELEN          FAIR      47  28  47 S9        30.10R
SOCORRO        NOT AVBL

$$
NMZ524>526-539-540-020600-
SOUTHCENTRAL MOUNTAINS

CITY           SKY/WX    TMP DP  RH WIND       PRES   REMARKS
RUIDOSO        NOT AVBL

$$
NMZ527>531-020600-
NORTHEAST HIGHLANDS/NORTHEAST PLAINS

CITY           SKY/WX    TMP DP  RH WIND       PRES   REMARKS
LAS VEGAS      FOG       25  24  96 S8        30.24R VSB 1/4 WCI  16
RATON          FOG       27  26  96 SW12      30.23R VSB 1/2 WCI  17
CLAYTON        CLOUDY    24  21  88 SE9       30.30S FOG     WCI  14

$$
NMZ532>537-020600-
EASTCENTRAL PLAINS

CITY           SKY/WX    TMP DP  RH WIND       PRES   REMARKS
TUCUMCARI      CLOUDY    29  27  92 E9        30.34R FOG     WCI  20
CANNON AFB     FRZ DRZL  30  30  99 E7        30.32R FOG     WCI  23
CLOVIS AIRPORT CLOUDY    28  28 100 E9        30.33R VSB 3/4 WCI  20

$$
NMZ028-029-538-020600-
SOUTHEAST PLAINS

CITY           SKY/WX    TMP DP  RH WIND       PRES   REMARKS
ROSWELL        CLOUDY    38  35  89 NE8       30.30R WCI  32
ARTESIA        CLOUDY    37  37 100 CALM      30.32R
CARLSBAD       CLOUDY    41  36  82 SE5       30.30R
HOBBS          CLOUDY    32  32 100 NE10      30.33R FOG     WCI  24


$$



USA.gov is the U.S. government's official web portal to all federal, state and local government web resources and services.